Location: Krakow
(50.0830°N, 19.9170°E)
Time: 06:51:24
(UTC+02:00)

Tiros 1 despin weight - Pass Details

Date: 17 March 2026
Orbit: 555 x 592 km, 48.2° (Epoch: 18 April)

Event Time Altitude Azimuth Distance (km) Brightness Sun altitude
Rises 04:10:47 0° 220° (SW) 2,812 - -16.5°
Reaches altitude 10° 04:13:17 10° 209° (SSW) 1,911 - -16.1°
Exits shadow 04:14:16 15° 200° (SSW) 1,599 ? -16.0°
Maximum altitude 04:17:01 28° 150° (SSE) 1,115 ? -15.6°
Drops below altitude 10° 04:20:45 10° 91° (E) 1,904 ? -15.0°
Sets 04:23:15 0° 80° (E) 2,799 ? -14.6°
